Temperature
16 16 15 15 15 15 15 14 14 14 14 13 13 12 12 11 11 10 10 10 10 9 9 9 8 8 8 7 7 7 6 6 5 5 5 4 4 3 3 2 2 2 1
16 16 15 15 15 15 15 15 14 14 13 13 13 12 12 11 11 11 10 10 10 9 9 9 8 8 7 7 7 6 6 6 5 5 4 4 3 3 2 2 1 1 0
15 15 15 15 14 15 15 14 14 13 13 12 12 12 11 11 11 11 10 10 10 9 9 8 8 8 7 7 7 6 6 5 5 4 4 3 3 2 2 2 1 0 -0
14 14 14 14 15 15 14 14 13 13 12 12 12 12 11 11 11 10 10 10 9 9 9 8 8 8 7 7 7 6 6 5 4 4 3 3 2 2 1 1 1 -0 -1
14 14 14 14 14 14 13 13 13 12 12 12 11 11 11 11 10 10 10 9 9 9 8 8 8 7 7 7 6 6 5 5 4 3 3 2 2 1 1 -0 -1 -1 -1
13 13 13 13 13 13 13 13 12 12 12 11 11 11 10 10 10 10 10 9 9 8 8 8 7 7 7 6 6 5 5 4 3 3 2 2 1 0 -0 -1 -2 -2 -3
13 13 13 13 12 12 12 12 12 11 11 11 11 10 10 10 10 10 9 9 9 8 8 8 7 7 6 6 5 5 4 3 3 2 2 1 -0 -1 -1 -2 -2 -3 -3
12 12 12 12 12 12 12 11 11 11 11 11 10 10 10 10 10 9 9 9 8 8 8 7 7 6 6 5 5 4 4 3 2 2 1 0 -0 -1 -2 -2 -3 -3 -3
11 12 12 12 12 12 11 11 11 11 10 10 10 10 10 10 9 9 9 8 8 8 7 7 6 6 5 5 4 4 3 3 2 1 0 -0 -1 -2 -2 -3 -3 -3 -4
11 11 12 11 11 11 11 11 11 11 11 10 10 10 10 9 9 9 8 8 8 7 7 6 6 5 5 4 4 3 3 2 1 1 -0 -1 -1 -2 -3 -3 -4 -5 -5
10 10 11 11 11 11 11 11 10 10 10 10 9 9 9 9 9 9 8 8 7 7 7 6 5 5 4 4 3 3 2 1 1 -0 -1 -1 -2 -2 -3 -4 -4 -5 -6
9 10 10 10 10 10 10 10 10 9 9 9 9 9 9 9 8 8 8 7 7 7 6 6 5 5 4 3 3 2 1 1 0 -0 -1 -2 -2 -3 -3 -4 -5 -6 -6
8 9 9 9 9 10 9 9 9 9 9 9 9 8 8 8 8 8 7 7 6 6 6 5 5 4 3 3 2 2 1 0 -0 -1 -1 -2 -3 -3 -4 -4 -5 -6 -6
8 8 8 9 9 9 9 9 9 9 9 9 8 8 8 8 8 7 7 6 6 6 5 5 4 3 3 2 2 1 0 -0 -1 -1 -2 -3 -3 -4 -4 -5 -5 -6 -6
7 7 8 8 8 8 8 8 9 9 9 9 9 9 8 8 8 8 7 6 6 5 5 4 4 3 2 2 1 1 -0 -1 -1 -2 -2 -3 -4 -4 -5 -5 -6 -6 -7
7 7 7 7 8 8 8 8 8 8 8 8 9 8 8 8 8 7 7 6 6 5 4 4 3 3 2 2 1 0 -0 -1 -2 -2 -3 -4 -4 -5 -5 -6 -6 -7 -7
6 7 7 7 7 7 7 7 7 7 7 7 7 7 7 7 7 7 6 6 5 4 4 4 3 3 2 1 1 -0 -1 -2 -2 -3 -3 -4 -4 -5 -6 -6 -7 -7 -7
6 6 6 6 7 7 7 7 7 7 7 6 7 7 7 7 6 6 6 5 4 4 4 3 3 2 2 1 0 -0 -1 -2 -3 -3 -4 -4 -5 -5 -6 -6 -7 -7 -8
6 6 6 6 6 7 7 7 7 7 7 6 6 6 6 6 5 5 5 5 5 4 4 3 2 2 1 1 -0 -1 -2 -2 -3 -3 -4 -5 -5 -6 -6 -7 -7 -8 -8
5 6 6 6 6 6 6 6 6 6 6 6 6 6 5 5 5 4 4 4 4 4 3 3 2 2 1 0 -0 -1 -2 -3 -3 -4 -4 -5 -5 -6 -7 -7 -7 -8 -8
5 5 6 6 6 6 6 6 6 6 6 6 6 6 5 5 5 5 4 4 4 3 3 3 2 1 1 0 -1 -1 -2 -3 -3 -4 -5 -5 -6 -6 -7 -7 -8 -8 -8
5 5 5 6 6 6 6 6 6 6 6 6 5 5 4 4 5 4 4 4 3 3 3 2 2 1 0 -0 -1 -2 -2 -3 -3 -4 -5 -5 -6 -6 -7 -7 -8 -8 -9
5 5 5 5 5 5 5 5 6 5 5 5 5 4 4 4 4 4 4 3 3 2 2 2 1 1 -0 -1 -1 -2 -2 -3 -4 -4 -5 -5 -6 -6 -7 -8 -8 -9 -9
5 5 5 5 5 5 5 5 5 5 5 5 4 4 4 4 4 3 3 3 2 2 2 1 1 0 -0 -1 -2 -2 -3 -4 -4 -5 -5 -6 -6 -7 -7 -8 -8 -9 -9
4 4 4 5 5 5 4 4 4 4 4 4 4 4 4 3 3 3 2 2 2 1 1 1 0 -0 -1 -1 -2 -3 -3 -4 -4 -5 -6 -6 -7 -7 -8 -8 -8 -9 -9
4 4 4 4 4 4 4 4 4 4 4 4 4 4 3 3 3 2 2 2 1 1 1 0 -0 -1 -1 -2 -3 -3 -4 -4 -5 -5 -6 -6 -7 -7 -8 -8 -9 -9 -9
Wind_Speed
17 17 17 17 17 16 15 16 15 14 14 15 15 15 14 14 13 12 11 11 11 9 8 8 8 6 5 4 3 3 3 3 4 2 1 1 1 2 5 7 7 8 10
16 16 17 16 15 16 16 16 15 15 15 15 15 15 14 14 13 13 13 12 12 11 10 9 8 6 6 4 4 4 3 3 3 3 2 1 1 2 3 4 6 8 9
13 14 15 15 16 16 16 15 15 15 14 14 14 15 14 14 14 13 13 12 11 11 10 10 9 8 7 5 5 4 3 3 2 2 2 0 1 2 3 4 5 5 8
12 14 15 16 17 16 15 14 14 15 15 15 15 14 14 13 13 12 12 11 10 9 9 9 9 9 8 8 6 5 4 3 2 2 1 0 1 2 2 3 5 5 5
12 13 14 14 13 13 13 13 13 14 14 14 14 13 12 12 12 13 12 12 11 9 8 7 7 8 9 7 6 6 5 4 3 2 1 0 1 2 2 2 3 5 5
12 12 12 12 13 13 14 13 13 13 13 14 14 14 13 11 16 19 15 12 11 11 9 7 7 7 9 9 9 8 7 5 4 3 2 1 2 1 1 2 2 4 4
10 10 11 13 13 14 14 14 14 14 13 14 14 14 13 14 19 20 18 12 11 10 10 9 7 7 9 7 8 8 6 5 5 5 3 2 1 1 0 1 2 2 3
10 10 11 12 13 13 14 14 14 12 12 13 13 13 12 13 19 20 19 12 10 9 10 10 10 9 8 9 8 7 5 4 4 4 3 2 1 1 1 0 1 3 3
10 11 11 12 13 14 14 14 12 11 11 11 12 13 13 13 19 20 18 10 9 9 8 9 10 9 13 14 10 8 6 4 6 7 6 5 5 4 4 3 3 3 3
9 10 10 12 13 14 14 12 10 11 11 11 11 12 13 13 19 21 19 10 10 9 7 8 11 11 14 14 9 8 7 4 4 5 5 5 6 6 6 3 1 1 2
6 7 9 10 12 12 11 11 12 11 11 10 11 10 11 14 19 22 20 11 11 10 8 7 7 14 14 13 10 7 8 8 5 4 3 3 3 3 4 4 2 1 1
6 7 8 9 9 11 12 11 12 13 12 11 10 9 8 10 14 17 20 16 15 11 9 7 8 15 14 13 9 9 12 9 5 4 3 2 2 2 2 4 4 3 2
7 8 8 9 9 11 13 13 12 12 11 10 10 10 9 7 10 17 19 19 18 10 9 14 15 16 14 10 11 12 10 6 5 3 2 1 0 1 1 2 4 5 5
7 8 8 9 9 10 10 11 11 11 11 11 11 11 10 9 9 10 11 12 15 12 11 14 16 15 11 10 9 7 5 4 4 3 2 1 1 1 1 2 2 3 3
7 8 8 8 9 9 8 8 9 8 11 13 12 12 14 12 13 18 15 12 11 12 13 9 7 7 6 5 5 5 4 4 3 2 2 2 1 1 2 2 2 2 2
7 8 7 7 7 8 8 7 6 8 11 12 13 14 10 13 21 22 21 21 22 22 13 9 8 7 7 7 6 5 3 3 3 3 2 2 1 1 1 2 2 2 3
7 8 7 7 8 8 8 9 8 7 10 12 16 17 17 21 24 23 23 23 22 20 9 9 8 8 7 6 6 5 3 3 3 3 2 2 1 1 1 2 2 3 3
7 7 8 7 8 8 8 9 9 10 9 7 10 16 21 23 24 24 25 19 12 9 7 9 8 8 7 7 6 5 4 4 3 3 2 2 1 1 1 1 2 2 3
7 7 7 7 7 8 8 8 9 10 10 9 9 11 17 21 22 23 21 10 11 9 8 8 8 8 7 7 6 5 5 4 4 3 2 2 1 1 0 1 2 4 3
6 9 8 8 8 8 8 9 10 10 10 11 11 11 12 13 11 12 9 8 9 9 8 8 8 8 7 7 6 6 5 4 4 3 2 2 1 1 1 1 1 2 3
6 8 10 8 8 8 9 10 10 10 11 10 9 12 17 12 12 12 10 9 9 9 9 8 8 8 7 7 6 6 6 5 4 4 3 2 2 1 1 1 1 2 2
6 7 8 8 8 8 9 9 10 10 11 11 10 12 18 10 10 10 9 8 7 7 8 8 8 7 7 8 8 7 6 5 5 4 3 3 2 1 1 0 1 2 2
7 8 8 8 8 11 10 9 9 10 11 11 11 11 11 9 9 9 9 8 8 8 8 9 8 7 7 8 9 8 7 6 6 6 5 4 2 2 1 0 1 2 2
7 9 9 9 9 9 9 9 10 10 11 11 11 11 10 10 9 10 9 9 9 9 9 9 9 10 11 9 8 8 7 7 8 7 7 5 3 2 1 0 1 2 2
7 8 9 9 9 10 10 10 10 11 11 11 11 11 10 10 10 10 9 9 10 10 10 10 9 11 12 11 10 9 10 10 9 8 7 5 4 3 2 1 1 1 2
8 8 8 9 9 10 10 11 11 11 11 11 11 11 11 11 10 10 10 10 10 9 10 9 11 12 12 11 12 12 12 11 10 10 8 5 4 3 2 1 1 1 2
Wind_Direction
198 198 196 198 196 192 193 194 191 185 181 182 183 182 183 183 182 183 185 181 184 184 181 184 190 180 177 178 170 170 182 182 225 260 245 329 358 348 346 347 342 338 334
198 195 195 194 191 191 194 192 187 184 184 182 179 180 183 183 183 184 185 183 185 185 184 182 187 177 179 173 171 178 186 186 196 237 252 280 312 336 335 336 342 339 330
193 191 190 190 189 192 194 190 185 183 180 178 177 181 183 183 183 185 184 183 185 186 182 183 183 174 182 175 170 174 179 168 173 194 230 248 321 348 341 335 334 332 335
186 187 189 191 192 192 189 185 183 181 179 179 180 181 181 180 180 179 178 178 179 179 178 179 177 179 183 176 172 173 161 151 148 159 197 283 303 337 338 331 333 335 328
183 186 191 189 186 181 179 180 179 179 179 177 176 177 176 176 178 175 174 173 171 168 165 167 170 169 169 165 162 165 157 152 145 146 156 21 302 335 328 320 319 326 318
184 188 182 176 176 177 178 176 174 176 174 172 175 176 177 179 174 171 169 170 168 166 161 155 151 150 152 151 151 152 152 151 160 155 168 221 264 281 293 328 324 339 319
182 180 175 173 175 177 174 173 174 175 172 173 175 175 177 177 170 170 167 164 163 163 159 155 150 149 143 137 134 127 125 123 136 149 160 198 229 240 259 319 314 309 287
176 176 175 174 174 172 172 175 174 171 172 173 173 173 171 172 168 166 159 153 151 154 156 157 153 151 150 139 127 117 106 97 108 111 137 156 154 152 137 344 277 307 291
179 179 176 174 172 171 174 175 168 165 167 168 169 167 167 166 163 158 150 148 144 144 146 150 150 151 151 141 134 128 115 95 91 99 97 91 80 72 68 59 21 7 334
188 182 176 172 172 173 173 167 160 161 161 158 160 164 163 161 160 156 148 147 144 141 138 144 150 150 151 147 142 141 138 134 115 94 77 66 55 51 48 56 70 18 332
179 171 169 170 170 166 161 157 155 151 150 151 151 153 157 158 159 157 154 154 152 147 148 148 152 151 149 148 142 143 145 137 124 112 96 74 54 40 26 22 31 147 226
164 164 165 162 158 156 152 152 151 150 150 149 146 144 145 151 155 159 158 153 149 147 152 150 149 148 144 141 136 134 131 125 118 112 102 78 47 15 357 357 357 341 267
161 162 160 154 155 156 155 154 152 154 155 155 154 153 149 146 151 155 154 150 146 139 143 145 143 142 137 132 131 133 129 123 124 123 120 99 13 323 357 0 360 355 340
164 162 157 155 155 156 154 157 159 162 160 159 159 157 152 150 151 151 149 142 137 130 129 135 134 130 121 124 127 123 116 129 132 135 130 111 72 41 31 9 356 351 348
163 162 160 157 155 154 152 159 162 169 170 167 167 162 162 166 169 159 152 149 146 139 132 123 123 127 124 120 115 114 114 118 116 114 117 113 78 41 14 7 6 1 347
167 164 162 157 153 151 144 125 116 143 152 156 156 154 157 155 153 154 151 148 146 144 135 142 146 147 148 149 145 138 131 134 132 126 124 122 106 54 4 357 0 354 330
174 166 161 160 157 154 151 147 137 118 124 143 149 150 149 151 152 151 149 147 149 146 138 149 154 156 154 153 153 152 154 147 139 135 134 128 108 68 19 355 350 342 329
169 165 164 164 160 158 156 155 152 149 146 137 141 148 148 149 150 149 147 142 147 147 145 153 157 157 155 156 156 153 147 143 142 142 139 135 124 96 20 342 335 325 324
171 168 164 160 157 156 153 151 148 147 145 141 134 142 146 146 147 150 150 149 155 158 155 155 155 155 155 154 153 151 152 157 153 149 148 148 147 125 360 316 317 327 340
175 171 167 159 154 155 155 153 153 152 150 152 155 152 149 145 149 156 157 151 153 156 157 156 155 152 153 153 152 151 151 154 152 150 156 160 163 162 206 281 306 318 317
170 166 164 160 161 160 158 159 158 157 157 158 158 160 160 158 159 160 162 160 160 159 157 155 153 152 151 150 150 153 155 159 159 159 163 168 167 172 224 267 288 307 320
171 169 166 163 159 158 157 159 158 157 156 153 149 156 160 153 155 157 158 157 154 151 152 151 152 155 157 158 157 158 161 164 165 165 168 168 168 173 189 270 316 326 332
167 162 158 155 154 156 156 157 158 157 157 156 155 156 159 157 157 156 154 151 146 144 146 147 148 149 148 153 158 162 167 175 175 171 166 165 166 174 182 235 299 325 329
167 164 161 159 157 159 160 161 160 158 157 157 158 158 158 157 154 151 149 146 144 144 145 147 149 151 148 150 155 161 165 165 163 166 164 163 166 170 173 204 276 304 313
169 166 165 164 163 162 162 161 161 160 159 158 158 156 154 152 151 149 147 145 145 146 146 145 146 149 151 151 153 157 161 159 157 157 157 157 161 167 173 195 258 309 313
168 166 166 164 165 165 164 165 164 161 160 158 157 155 155 154 153 151 149 148 147 147 146 146 148 148 150 152 156 158 160 160 159 158 156 155 156 166 169 189 234 284 309
Height
1395 1401 1408 1414 1420 1427 1433 1439 1445 1450 1456 1461 1466 1471 1475 1479 1483 1487 1491 1494 1497 1500 1502 1504 1506 1508 1509 1510 1510 1510 1510 1509 1507 1506 1505 1503 1501 1499 1496 1493 1490 1486 1483
1388 1394 1401 1407 1414 1420 1426 1432 1438 1444 1449 1455 1460 1464 1469 1473 1477 1481 1485 1488 1492 1494 1497 1499 1501 1503 1504 1505 1505 1505 1505 1504 1503 1502 1500 1499 1497 1494 1492 1489 1486 1483 1479
1381 1388 1394 1400 1406 1413 1419 1425 1432 1438 1443 1449 1454 1458 1463 1467 1472 1476 1480 1483 1486 1489 1492 1494 1496 1498 1499 1500 1500 1501 1500 1500 1499 1498 1496 1495 1493 1491 1488 1486 1483 1479 1475
1375 1381 1387 1393 1400 1406 1413 1419 1425 1431 1437 1442 1448 1453 1457 1462 1466 1471 1474 1478 1481 1484 1487 1489 1491 1493 1494 1495 1496 1496 1496 1495 1495 1494 1492 1490 1489 1487 1484 1481 1478 1475 1472
1369 1375 1380 1387 1394 1400 1407 1413 1419 1425 1431 1437 1442 1447 1452 1457 1461 1465 1469 1473 1476 1479 1482 1484 1486 1488 1490 1491 1491 1491 1491 1491 1490 1489 1488 1487 1485 1483 1480 1477 1474 1471 1468
1364 1369 1375 1381 1388 1394 1401 1407 1414 1420 1425 1431 1436 1442 1447 1451 1456 1460 1464 1468 1471 1474 1477 1480 1482 1484 1485 1486 1487 1487 1488 1487 1486 1486 1484 1483 1481 1479 1477 1474 1471 1467 1463
1359 1364 1370 1376 1382 1388 1395 1402 1408 1414 1420 1425 1431 1437 1441 1446 1451 1455 1460 1463 1467 1470 1472 1475 1477 1479 1481 1482 1483 1483 1483 1483 1483 1483 1481 1480 1478 1476 1474 1471 1468 1465 1462
1355 1360 1365 1371 1377 1383 1390 1396 1402 1408 1414 1420 1426 1431 1437 1442 1446 1451 1455 1459 1462 1465 1468 1471 1473 1475 1477 1478 1479 1479 1480 1480 1479 1479 1478 1477 1475 1473 1471 1469 1466 1463 1460
1351 1356 1361 1366 1372 1378 1384 1390 1397 1403 1409 1415 1421 1427 1432 1437 1442 1446 1451 1455 1458 1461 1464 1467 1469 1471 1473 1474 1475 1476 1476 1476 1476 1476 1475 1474 1472 1471 1469 1466 1463 1460 1456
1348 1353 1358 1363 1368 1374 1380 1386 1392 1399 1405 1411 1417 1422 1428 1433 1438 1442 1447 1450 1454 1457 1460 1463 1465 1467 1469 1470 1472 1472 1473 1473 1473 1473 1473 1472 1470 1468 1466 1464 1461 1457 1454
1346 1350 1355 1360 1365 1370 1376 1382 1388 1395 1401 1407 1413 1418 1424 1429 1434 1438 1443 1446 1450 1453 1456 1459 1461 1463 1465 1467 1468 1469 1470 1470 1470 1470 1470 1469 1467 1466 1464 1461 1459 1456 1453
1343 1347 1352 1357 1362 1367 1373 1379 1385 1391 1397 1403 1409 1414 1420 1425 1430 1434 1439 1443 1447 1450 1453 1456 1458 1461 1463 1464 1465 1466 1467 1467 1468 1467 1467 1466 1465 1463 1462 1459 1457 1455 1452
1341 1345 1349 1354 1359 1364 1370 1375 1381 1387 1393 1398 1404 1409 1415 1421 1426 1431 1435 1440 1443 1447 1450 1453 1455 1458 1460 1461 1463 1464 1464 1465 1465 1465 1464 1464 1463 1461 1459 1458 1455 1453 1451
1338 1342 1346 1351 1356 1361 1367 1372 1377 1383 1388 1394 1399 1405 1411 1416 1421 1426 1431 1435 1440 1443 1447 1450 1452 1455 1457 1458 1460 1461 1462 1462 1463 1463 1462 1462 1460 1459 1457 1455 1453 1451 1448
1336 1339 1344 1348 1353 1358 1363 1369 1374 1380 1384 1390 1395 1400 1405 1411 1416 1422 1426 1431 1435 1439 1443 1446 1449 1451 1453 1455 1457 1458 1459 1460 1460 1460 1460 1459 1458 1457 1456 1454 1452 1449 1447
1334 1337 1341 1345 1350 1355 1360 1366 1373 1378 1384 1390 1395 1399 1405 1410 1415 1419 1424 1429 1433 1437 1440 1443 1446 1448 1450 1452 1454 1455 1457 1457 1458 1458 1458 1457 1456 1455 1454 1452 1450 1448 1445
1331 1334 1338 1342 1347 1351 1357 1362 1368 1375 1381 1387 1392 1397 1402 1407 1412 1417 1421 1426 1430 1434 1437 1440 1443 1445 1448 1450 1452 1453 1454 1455 1456 1456 1455 1455 1454 1453 1452 1450 1448 1446 1444
1329 1332 1335 1339 1344 1348 1354 1360 1365 1370 1375 1381 1388 1394 1399 1405 1409 1414 1419 1423 1426 1430 1434 1437 1440 1443 1445 1447 1449 1451 1452 1453 1453 1453 1453 1453 1452 1451 1450 1448 1447 1445 1442
1326 1329 1333 1337 1341 1346 1351 1357 1362 1367 1372 1378 1384 1390 1396 1402 1407 1411 1415 1419 1423 1426 1430 1434 1437 1440 1443 1445 1447 1448 1449 1450 1451 1451 1451 1451 1450 1449 1448 1447 1445 1443 1441
1323 1326 1330 1334 1338 1343 1348 1353 1358 1363 1369 1374 1380 1385 1391 1397 1401 1406 1411 1415 1420 1424 1427 1431 1434 1437 1440 1442 1444 1446 1447 1448 1448 1449 1449 1448 1448 1447 1446 1445 1444 1442 1440
1319 1323 1327 1331 1335 1340 1345 1350 1355 1360 1365 1371 1377 1383 1388 1393 1398 1402 1407 1411 1416 1420 1424 1428 1431 1434 1437 1439 1441 1443 1444 1445 1446 1446 1446 1446 1446 1446 1445 1444 1442 1441 1439
1316 1319 1323 1327 1331 1336 1341 1347 1352 1357 1362 1368 1374 1380 1385 1390 1395 1399 1404 1409 1413 1418 1422 1425 1429 1432 1434 1437 1439 1440 1441 1442 1443 1444 1444 1444 1444 1444 1443 1442 1441 1439 1438
1312 1315 1319 1324 1328 1333 1338 1343 1348 1353 1359 1365 1371 1376 1381 1386 1392 1397 1401 1406 1410 1414 1419 1423 1426 1429 1432 1434 1436 1438 1439 1440 1441 1442 1442 1442 1442 1442 1441 1440 1439 1438 1436
1309 1312 1316 1320 1325 1330 1335 1340 1345 1350 1356 1361 1367 1373 1378 1383 1388 1394 1398 1403 1407 1412 1416 1420 1423 1426 1429 1431 1433 1435 1437 1438 1439 1439 1440 1440 1440 1440 1439 1439 1438 1437 1435
1305 1309 1313 1317 1322 1326 1331 1336 1341 1347 1352 1358 1364 1369 1374 1380 1385 1390 1395 1400 1404 1409 1413 1417 1421 1424 1426 1429 1431 1433 1434 1436 1437 1437 1438 1438 1438 1438 1437 1437 1436 1435 1434
1302 1305 1309 1314 1318 1323 1328 1332 1338 1343 1349 1354 1360 1366 1371 1376 1382 1387 1392 1397 1401 1406 1410 1414 1418 1421 1424 1426 1429 1430 1432 1433 1434 1435 1435 1436 1436 1436 1436 1435 1435 1434 1433